This is the latest recevied weather packets stored in our database for station/object IT9CNT. If no packets are shown the sender has not sent any weather packets the latest 1 day(s).
| Time | Temp. | Humidity | Pressure | Rain* | Wind** | Luminosity | Snow |
|---|---|---|---|---|---|---|---|
| 1778028063 | 16.11° C | 76% | 1011.7 hPa | 0 mm | 0.89 m/s, 96° | - | - |
| 1778028003 | 16.11° C | 76% | 1011.7 hPa | 0 mm | 0.89 m/s, 74° | - | - |
| 1778027883 | 16.11° C | 76% | 1011.8 hPa | 0 mm | 0.45 m/s, 19° | - | - |
| 1778027823 | 16.11° C | 77% | 1011.8 hPa | 0 mm | 0.45 m/s, 354° | - | - |
| 1778027763 | 16.11° C | 77% | 1012.2 hPa | 0 mm | 0.45 m/s, 2° | - | - |
| 1778027703 | 16.11° C | 77% | 1012.2 hPa | 0 mm | 0.89 m/s, 14° | - | - |
| 1778027643 | 16.11° C | 77% | 1012.3 hPa | 0 mm | 0.89 m/s, 21° | - | - |
| 1778027583 | 16.11° C | 77% | 1012.3 hPa | 0 mm | 1.34 m/s, 26° | - | - |
| 1778027523 | 16.11° C | 77% | 1012.2 hPa | 0 mm | 1.34 m/s, 33° | - | - |
| 1778027463 | 16.11° C | 77% | 1012.2 hPa | 0 mm | 1.34 m/s, 37° | - | - |
| 1778027403 | 16.11° C | 77% | 1012.3 hPa | 0 mm | 1.79 m/s, 36° | - | - |
| 1778027343 | 16.11° C | 77% | 1012.4 hPa | 0 mm | 1.79 m/s, 35° | - | - |
| 1778027283 | 16.11° C | 77% | 1011.9 hPa | 0 mm | 1.79 m/s, 36° | - | - |
| 1778027224 | 16.11° C | 77% | 1012.1 hPa | 0 mm | 2.24 m/s, 41° | - | - |
| 1778027164 | 16.11° C | 77% | 1012 hPa | 0 mm | 2.24 m/s, 39° | - | - |
| 1778027103 | 16.11° C | 77% | 1011.9 hPa | 0 mm | 2.24 m/s, 45° | - | - |
| 1778027043 | 16.11° C | 77% | 1011.9 hPa | 0 mm | 2.68 m/s, 53° | - | - |
| 1778026983 | 16.11° C | 77% | 1012 hPa | 0 mm | 3.13 m/s, 58° | - | - |
| 1778026923 | 16.11° C | 77% | 1012.2 hPa | 0 mm | 3.13 m/s, 63° | - | - |
| 1778026863 | 16.11° C | 77% | 1012.3 hPa | 0 mm | 3.13 m/s, 68° | - | - |
| 1778026803 | 16.11° C | 77% | 1011.9 hPa | 0 mm | 3.13 m/s, 73° | - | - |
| 1778026743 | 16.11° C | 77% | 1012.1 hPa | 0 mm | 3.13 m/s, 81° | - | - |
| 1778026683 | 16.11° C | 77% | 1011.9 hPa | 0 mm | 3.13 m/s, 87° | - | - |
| 1778026623 | 16.11° C | 77% | 1011.8 hPa | 0 mm | 3.58 m/s, 88° | - | - |
| 1778026563 | 16.11° C | 77% | 1011.9 hPa | 0 mm | 3.58 m/s, 89° | - | - |
* Rain latest hour (hover to see other rain measurements)
** Current wind speed in m/s (hover to see current wind gust speed)